Location: Unspecified
(22.6800°N, 112.2000°E)
Time: 00:11:37
(UTC+08:00)

Courier 1B Rocket - Pass Details

Date: 08 August 2021
Orbit: 920 x 1202 km, 28.3° (Epoch: 17 September)

Event Time Altitude Azimuth Distance (km) Brightness Sun altitude
Rises 19:50:02 0° 217° (SW) 4,077 8.4 -9.9°
Reaches altitude 10° 19:53:19 10° 206° (SSW) 3,123 7.7 -10.6°
Maximum altitude 19:59:48 29° 150° (SSE) 2,037 6.3 -12.0°
Enters shadow 20:04:33 16° 102° (ESE) 2,660 6.6 -13.0°
